This demonstration page uses our WeatherBlox Daily Observations layout. Learn more.

40.92945, -100.16068

Hourly Observations for June 28, 2015

Temp ( °F °C ) Dew Point ( °F °C ) Humidity (%) Winds ( mph kmh ) Pressure ( in mb ) Visibility ( mi km ) Precip ( " mm )
12:15 am 00:15 Clear 66 19.1 59 15.1 78 78 SSW 5 7 29.97 1015 7 11.26538 N/A
12:35 am 00:35 Clear 66 18.8 59 14.8 78 78 SSW 7 11 29.97 1015 10 16.0934 N/A
12:55 am 00:55 Clear 66 19.1 59 14.8 76 76 S 6 9 29.97 1015 10 16.0934 N/A
1:15 am 01:15 Clear 65 18.1 58 14.7 81 81 Calm 29.97 1015 10 16.0934 N/A
1:35 am 01:35 Clear 66 18.8 59 15 79 79 Calm 29.97 1015 10 16.0934 N/A
1:55 am 01:55 Clear 67 19.3 58 14.3 73 73 SW 6 9 29.97 1015 10 16.0934 N/A
2:15 am 02:15 Clear 66 18.7 56 13.6 72 72 WSW 3 6 29.97 1015 10 16.0934 N/A
2:35 am 02:35 Clear 67 19.5 57 13.8 70 70 SW 6 9 29.97 1015 10 16.0934 N/A
2:55 am 02:55 Clear 68 19.8 56 13.5 67 67 Calm 29.91 1013 10 16.0934 N/A
3:15 am 03:15 Clear 68 19.8 56 13.5 67 67 WSW 6 9 29.91 1013 10 16.0934 N/A
3:35 am 03:35 Clear 65 18.5 56 13.4 72 72 W 3 6 29.94 1014 10 16.0934 N/A
3:55 am 03:55 Clear 63 17.3 56 13.5 79 79 WNW 6 9 29.94 1014 10 16.0934 N/A
4:15 am 04:15 Clear 62 16.5 56 13.1 80 80 NNW 7 11 29.94 1014 10 16.0934 N/A
4:35 am 04:35 Clear 61 15.9 56 13.3 85 85 NW 6 9 29.97 1015 10 16.0934 N/A
4:55 am 04:55 Clear 59 15.2 56 13.2 88 88 NNW 5 7 29.97 1015 10 16.0934 N/A
5:15 am 05:15 Clear 59 15 56 13.1 89 89 NNW 7 11 29.97 1015 10 16.0934 N/A
5:35 am 05:35 Clear 60 15.7 57 14 90 90 NW 9 15 29.97 1015 10 16.0934 N/A
5:55 am 05:55 Clear 61 16 57 14 88 88 WNW 7 11 30 1016 10 16.0934 N/A
6:15 am 06:15 Sunny 61 16.2 58 14.4 89 89 W 7 11 29.97 1015 10 16.0934 N/A
6:35 am 06:35 Sunny 61 16.3 58 14.6 90 90 WNW 8 13 30 1016 10 16.0934 N/A
6:55 am 06:55 Sunny 63 17.1 59 15.1 88 88 WNW 8 13 29.97 1015 10 16.0934 N/A
7:15 am 07:15 Sunny 64 18 60 15.6 86 86 WNW 6 9 29.97 1015 10 16.0934 N/A
7:35 am 07:35 Sunny 66 19.1 61 16.1 83 83 WNW 7 11 29.97 1015 10 16.0934 N/A
7:55 am 07:55 Sunny 68 20 61 16.3 79 79 WNW 8 13 29.97 1015 10 16.0934 N/A
8:15 am 08:15 Sunny 70 21 62 16.6 76 76 NW 9 15 29.94 1014 10 16.0934 N/A
8:35 am 08:35 Sunny 71 21.8 62 16.7 73 73 NW 8 13 29.94 1014 10 16.0934 N/A
8:55 am 08:55 Sunny 73 23 62 16.7 68 68 WNW 7 11 29.94 1014 10 16.0934 N/A
9:15 am 09:15 Sunny 76 24.3 63 17.3 65 65 NNW 7 11 29.91 1013 10 16.0934 N/A
9:35 am 09:35 Sunny 77 25.1 63 17.4 62 62 NNW 7 11 29.91 1013 10 16.0934 N/A
9:55 am 09:55 Sunny 79 26 64 17.7 60 60 NNW 5 7 29.91 1013 10 16.0934 N/A
10:15 am 10:15 Sunny 81 27 63 17 54 54 NNW 7 11 29.91 1013 10 16.0934 N/A
10:35 am 10:35 Sunny 82 27.7 61 16.2 50 50 N 7 11 29.88 1012 10 16.0934 N/A
10:55 am 10:55 Sunny 83 28.5 60 15.8 46 46 NNW 6 9 29.88 1012 10 16.0934 N/A
11:15 am 11:15 Sunny 84 28.8 61 15.9 46 46 NNW 9 15 29.88 1012 10 16.0934 N/A
11:35 am 11:35 Sunny 85 29.3 59 15.2 42 42 NNW 8 13 29.88 1012 10 16.0934 N/A
11:55 am 11:55 Sunny 86 30.1 57 13.7 37 37 N 8 13 29.88 1012 10 16.0934 N/A
12:15 pm 12:15 Sunny 87 30.5 55 12.9 34 34 N 13 20 29.85 1011 10 16.0934 N/A
12:35 pm 12:35 Sunny 87 30.7 55 12.5 33 33 N 8 13 29.85 1011 10 16.0934 N/A
12:55 pm 12:55 Sunny 88 31.3 55 12.5 32 32 NNW 10 17 29.85 1011 10 16.0934 N/A
1:15 pm 13:15 Sunny 89 31.5 54 12.4 31 31 NNW 12 19 29.85 1011 10 16.0934 N/A
1:35 pm 13:35 Sunny 89 31.4 55 12.8 32 32 N 14 22 29.85 1011 10 16.0934 N/A
1:55 pm 13:55 Sunny 90 32.1 54 12.4 30 30 NNW 13 20 29.85 1011 10 16.0934 N/A
2:15 pm 14:15 Sunny 90 32.3 55 12.6 30 30 N 16 26 29.85 1011 10 16.0934 N/A
2:35 pm 14:35 Sunny 91 32.6 55 12.7 30 30 NNW 16 26 29.83 1010 10 16.0934 N/A
2:55 pm 14:55 Sunny 91 32.6 55 13 30 30 N 12 19 29.83 1010 10 16.0934 N/A
3:15 pm 15:15 Sunny 91 32.7 54 12.2 29 29 NNW 12 19 29.83 1010 10 16.0934 N/A
3:35 pm 15:35 Sunny 91 32.8 53 11.9 28 28 N 10 17 29.83 1010 10 16.0934 N/A
3:55 pm 15:55 Sunny 91 32.9 54 12.1 28 28 NNW 12 19 29.83 1010 10 16.0934 N/A
4:15 pm 16:15 Sunny 91 32.9 53 11.5 27 27 N 10 17 29.83 1010 10 16.0934 N/A
4:35 pm 16:35 Sunny 91 32.8 53 11.9 28 28 N 12 19 29.83 1010 10 16.0934 N/A
4:55 pm 16:55 Sunny 90 32.2 54 12.2 29 29 NNE 14 22 29.83 1010 10 16.0934 N/A
5:15 pm 17:15 Sunny 90 32 55 12.5 30 30 N 13 20 29.83 1010 10 16.0934 N/A
5:35 pm 17:35 Sunny 90 32 54 12.3 30 30 N 14 22 29.83 1010 10 16.0934 N/A
5:55 pm 17:55 Sunny 90 32 54 12.4 30 30 N 12 19 29.83 1010 10 16.0934 N/A
6:15 pm 18:15 Sunny 89 31.5 53 11.9 30 30 N 13 20 29.83 1010 10 16.0934 N/A
6:35 pm 18:35 Sunny 88 30.9 55 12.6 33 33 N 14 22 29.83 1010 10 16.0934 N/A
6:55 pm 18:55 Sunny 87 30.5 55 12.6 33 33 NNE 12 19 29.83 1010 10 16.0934 N/A
7:15 pm 19:15 Sunny 86 30 54 12.4 34 34 NNE 10 17 29.85 1011 10 16.0934 N/A
8:55 pm 20:55 Sunny 77 24.9 59 15.2 55 55 NNE 5 7 29.88 1012 10 16.0934 N/A
9:15 pm 21:15 Clear 74 23.5 61 15.9 62 62 Calm 29.88 1012 10 16.0934 N/A
9:35 pm 21:35 Clear 74 23.2 60 15.4 62 62 NNE 5 7 29.91 1013 10 16.0934 N/A
9:55 pm 21:55 Clear 71 21.7 61 16 70 70 Calm 29.94 1014 10 16.0934 N/A
10:15 pm 22:15 Clear 71 21.6 61 16.3 72 72 Calm 29.94 1014 10 16.0934 N/A
10:35 pm 22:35 Clear 69 20.7 61 15.9 74 74 Calm 29.94 1014 10 16.0934 N/A
10:55 pm 22:55 Clear 67 19.3 59 15.1 77 77 NNE 3 6 29.97 1015 10 16.0934 N/A
11:15 pm 23:15 Clear 64 17.8 59 14.8 83 83 NE 3 6 29.97 1015 10 16.0934 N/A
11:35 pm 23:35 Clear 65 18.4 58 14.5 78 78 NE 3 6 29.97 1015 10 16.0934 N/A
11:55 pm 23:55 Clear 64 17.7 57 14 79 79 Calm 29.97 1015 10 16.0934 N/A

Powered by AerisWeather